Карточка аэропорта UACK

Внимание!
Информация на этой странице в стадии наполнения.
Если вы не увидели какой-то информации, или заметили неточность - пожалуйста сообщите нам!
Спасибо!
Команда RU-STAFF
Название аэропортаКокшетау
Название аэропорта (англ.)Kokshetau
Превышение889 ft. (271 m.)
Координаты53°19.8', 69°35.802'
Высота перехода10000ft
Эшелон переходаFL120, QNH<733:FL130
Коды ответчика7264-7267
Зона ОрВДАстана РПИ (UACN)
Данные METARUACK 190300Z 29004MPS 9999 BKN010CB 19/17 Q1002 NOSIG RMK QFE728/0970
Проноз погоды (TAF)UACK 190302Z 1903/1912 31003G08MPS 9999 BKN010CB TEMPO 1903/1912 33006MPS 3100 -SHRA BKN020CB
NOTAMshow/hide NOTAM
AWOS   TABLE

Информация о ВПП

ВПП Длина ВПП (м.) Покрытие Курс ВПП Частота ILS
022850Асфальтобетон21110.3
202850Асфальтобетон201109.5

Диспетчерские позиции




Спутниковое изображение